Date,TemperatureHighF,TemperatureAvgF,TemperatureLowF,DewpointHighF,DewpointAvgF,DewpointLowF,HumidityHigh,HumidityAvg,HumidityLow,PressureMaxIn,PressureMinIn,WindSpeedMaxMPH,WindSpeedAvgMPH,GustSpeedMaxMPH,PrecipitationSumIn
2013-11-1,74.5,65.2,52.6,63.6,59.6,50.4,95,83,63,29.76,29.52,9,2,13,0.04
2013-11-2,68.1,55.7,46.8,50.2,42.0,35.8,94,62,37,29.88,29.61,14,4,16,0.01
2013-11-3,62.2,48.0,35.9,40.4,35.5,32.3,89,65,37,30.28,29.88,8,2,14,0.00
2013-11-4,57.3,42.8,30.8,38.0,32.0,28.8,95,70,36,30.45,30.29,5,0,10,0.00
2013-11-5,59.9,45.8,31.7,48.4,37.4,29.4,92,74,45,30.49,30.35,5,0,8,0.00
2013-11-6,65.8,54.2,46.6,54.0,50.0,44.8,95,87,65,30.35,30.04,2,0,7,0.04
2013-11-7,66.1,49.1,34.5,56.3,41.5,31.3,97,77,48,30.07,29.90,16,2,21,0.00
2013-11-8,57.0,41.6,28.4,34.9,27.3,23.1,92,62,28,30.25,30.07,9,2,13,0.00
2013-11-9,57.2,39.8,26.1,34.4,29.2,23.7,92,70,35,30.30,30.12,7,1,13,0.00
2013-11-10,70.7,49.1,30.6,41.2,32.6,26.7,93,59,26,30.17,30.05,11,2,19,0.00
2013-11-11,62.7,44.3,27.3,32.0,26.9,19.6,84,55,20,30.27,30.06,6,0,19,0.00
2013-11-12,59.5,39.5,27.0,39.6,28.1,15.2,86,65,39,30.39,29.96,13,4,20,0.00
2013-11-13,50.9,35.5,26.0,20.4,17.3,13.5,76,50,26,30.45,30.36,9,3,20,0.00
2013-11-14,59.0,38.6,20.3,27.5,22.8,17.3,90,58,24,30.40,30.23,4,0,10,0.00
2013-11-15,52.8,40.0,26.2,45.7,32.2,21.8,94,76,42,30.27,30.13,0,0,8,0.07
2013-11-16,56.0,50.9,46.7,52.5,48.8,45.3,96,93,84,30.19,30.11,0,0,0,0.01
2013-11-17,59.6,55.2,52.0,56.3,53.4,50.2,96,94,87,30.12,29.78,0,0,0,0.30
2013-11-18,70.1,59.2,45.7,57.8,44.3,30.6,97,62,31,29.92,29.73,12,3,19,0.02
2013-11-19,56.8,44.9,33.7,33.1,28.3,23.7,78,54,32,30.19,29.91,8,2,14,0.00
2013-11-20,51.9,40.3,32.4,32.0,29.2,26.5,90,66,43,30.39,30.18,8,1,10,0.00
2013-11-21,52.6,45.9,34.5,46.6,39.7,31.2,93,79,69,30.42,30.30,5,0,9,0.00
2013-11-22,59.0,53.2,48.2,56.7,51.4,46.4,96,94,89,30.32,30.01,0,0,0,0.05
2013-11-23,59.2,50.6,37.5,53.4,39.6,19.6,96,68,40,30.14,29.99,13,4,16,0.00
2013-11-24,40.3,31.8,22.7,19.9,10.9,4.3,64,43,25,30.44,30.14,9,5,15,0.00
2013-11-25,36.8,28.5,18.0,29.1,15.0,9.9,89,59,36,30.49,30.29,5,0,11,0.01
2013-11-26,41.1,36.0,31.6,39.8,34.1,26.4,96,93,81,30.29,29.56,5,0,8,1.75
2013-11-27,44.0,35.9,23.6,42.0,27.6,15.3,96,73,54,30.11,29.48,13,5,24,0.04
2013-11-28,45.9,29.1,17.3,25.3,19.8,14.7,91,71,38,30.41,30.11,4,0,24,0.00
2013-11-29,55.7,34.4,21.1,29.9,24.6,18.9,93,72,34,30.55,30.39,6,1,9,0.00
2013-11-30,46.1,32.6,25.1,26.4,23.9,21.6,89,72,42,30.58,30.31,5,0,9,0.00